Time,TemperatureF,DewpointF,PressureIn,WindDirection,WindDirectionDegrees,WindSpeedMPH,WindSpeedGustMPH,Humidity,HourlyPrecipIn,Conditions,Clouds,dailyrainin,SoftwareType,DateUTC
2013-01-14 00:04:00,11.4,5.0,30.25,WSW,257,10.0,14.0,75,0.00,,---,0.00,VWS V14.01,2013-01-14 06:04:00,
2013-01-14 00:09:00,11.3,4.9,30.25,West,264,6.0,16.0,75,0.00,,---,0.00,VWS V14.01,2013-01-14 06:09:00,
2013-01-14 00:14:00,11.2,4.8,30.25,West,269,9.0,17.0,75,0.00,,---,0.00,VWS V14.01,2013-01-14 06:14:00,
2013-01-14 00:19:00,11.2,4.8,30.26,WNW,288,10.0,17.0,75,0.00,,---,0.00,VWS V14.01,2013-01-14 06:19:00,
2013-01-14 00:24:00,11.0,4.6,30.26,WNW,301,5.0,17.0,75,0.00,,---,0.00,VWS V14.01,2013-01-14 06:24:00,
2013-01-14 00:30:00,11.0,4.6,30.26,West,280,8.0,17.0,75,0.00,,---,0.00,VWS V14.01,2013-01-14 06:30:00,
2013-01-14 00:35:00,10.9,4.8,30.26,West,260,6.0,13.0,76,0.00,,---,0.00,VWS V14.01,2013-01-14 06:35:00,
2013-01-14 00:40:00,10.8,4.7,30.26,West,263,9.0,13.0,76,0.00,,---,0.00,VWS V14.01,2013-01-14 06:40:00,
2013-01-14 00:45:00,10.8,4.7,30.26,West,259,6.0,13.0,76,0.00,,---,0.00,VWS V14.01,2013-01-14 06:45:00,
2013-01-14 00:50:00,10.7,4.9,30.27,West,280,7.0,14.0,77,0.00,,---,0.00,VWS V14.01,2013-01-14 06:50:00,
2013-01-14 00:55:00,10.7,4.9,30.27,West,269,5.0,14.0,77,0.00,,---,0.00,VWS V14.01,2013-01-14 06:55:00,
2013-01-14 01:00:00,10.6,4.8,30.27,West,269,4.0,14.0,77,0.00,,---,0.00,VWS V14.01,2013-01-14 07:00:00,
2013-01-14 01:05:00,10.5,5.0,30.28,West,273,7.0,9.0,78,0.00,,---,0.00,VWS V14.01,2013-01-14 07:05:00,
2013-01-14 01:10:00,10.5,5.0,30.28,West,269,5.0,9.0,78,0.00,,---,0.00,VWS V14.01,2013-01-14 07:10:00,
2013-01-14 01:15:00,10.5,5.0,30.29,West,263,9.0,12.0,78,0.00,,---,0.00,VWS V14.01,2013-01-14 07:15:00,
2013-01-14 01:20:00,10.4,4.9,30.29,WSW,252,4.0,10.0,78,0.00,,---,0.00,VWS V14.01,2013-01-14 07:20:00,
2013-01-14 01:25:00,10.2,4.7,30.29,West,262,5.0,10.0,78,0.00,,---,0.00,VWS V14.01,2013-01-14 07:25:00,
2013-01-14 01:31:00,10.1,4.9,30.29,West,262,2.0,6.0,79,0.00,,---,0.00,VWS V14.01,2013-01-14 07:31:00,
2013-01-14 01:36:00,10.0,4.8,30.29,West,276,6.0,7.0,79,0.00,,---,0.00,VWS V14.01,2013-01-14 07:36:00,
2013-01-14 01:41:00,10.0,4.5,30.29,WNW,284,5.0,9.0,78,0.00,,---,0.00,VWS V14.01,2013-01-14 07:41:00,
2013-01-14 01:46:00,9.9,4.7,30.30,WSW,253,1.0,2.0,79,0.00,,---,0.00,VWS V14.01,2013-01-14 07:46:00,
2013-01-14 01:51:00,9.8,4.6,30.30,West,268,5.0,7.0,79,0.00,,---,0.00,VWS V14.01,2013-01-14 07:51:00,
2013-01-14 01:56:00,9.7,4.5,30.31,WSW,258,4.0,7.0,79,0.00,,---,0.00,VWS V14.01,2013-01-14 07:56:00,
2013-01-14 02:01:00,9.6,4.7,30.31,WSW,255,4.0,5.0,80,0.00,,---,0.00,VWS V14.01,2013-01-14 08:01:00,
2013-01-14 02:06:00,9.5,4.6,30.32,WSW,250,6.0,8.0,80,0.00,,---,0.00,VWS V14.01,2013-01-14 08:06:00,
2013-01-14 02:11:00,9.4,4.5,30.32,WSW,254,3.0,8.0,80,0.00,,---,0.00,VWS V14.01,2013-01-14 08:11:00,
2013-01-14 02:16:00,9.4,4.8,30.32,West,265,2.0,6.0,81,0.00,,---,0.00,VWS V14.01,2013-01-14 08:16:00,
2013-01-14 02:21:00,9.4,4.5,30.32,West,260,5.0,8.0,80,0.00,,---,0.00,VWS V14.01,2013-01-14 08:21:00,
2013-01-14 02:26:00,9.4,4.5,30.33,West,273,5.0,9.0,80,0.00,,---,0.00,VWS V14.01,2013-01-14 08:26:00,
2013-01-14 02:31:00,9.4,4.5,30.33,West,272,7.0,9.0,80,0.00,,---,0.00,VWS V14.01,2013-01-14 08:31:00,
2013-01-14 02:36:00,9.5,4.6,30.33,WSW,251,7.0,10.0,80,0.00,,---,0.00,VWS V14.01,2013-01-14 08:36:00,
2013-01-14 02:41:00,9.4,4.5,30.33,West,267,6.0,10.0,80,0.00,,---,0.00,VWS V14.01,2013-01-14 08:41:00,
2013-01-14 02:47:00,9.4,4.5,30.32,WSW,258,7.0,8.0,80,0.00,,---,0.00,VWS V14.01,2013-01-14 08:47:00,
2013-01-14 02:52:00,9.3,4.4,30.33,WSW,257,5.0,9.0,80,0.00,,---,0.00,VWS V14.01,2013-01-14 08:52:00,
2013-01-14 02:57:00,9.2,4.3,30.33,West,261,5.0,9.0,80,0.00,,---,0.00,VWS V14.01,2013-01-14 08:57:00,
2013-01-14 03:02:00,9.1,4.5,30.33,West,260,5.0,6.0,81,0.00,,---,0.00,VWS V14.01,2013-01-14 09:02:00,
2013-01-14 03:07:00,9.0,4.4,30.33,West,263,6.0,6.0,81,0.00,,---,0.00,VWS V14.01,2013-01-14 09:07:00,
2013-01-14 03:12:00,9.1,4.5,30.33,WNW,284,5.0,9.0,81,0.00,,---,0.00,VWS V14.01,2013-01-14 09:12:00,
2013-01-14 03:17:00,9.1,4.5,30.34,WSW,258,6.0,6.0,81,0.00,,---,0.00,VWS V14.01,2013-01-14 09:17:00,
2013-01-14 03:22:00,9.0,4.4,30.34,WSW,257,4.0,8.0,81,0.00,,---,0.00,VWS V14.01,2013-01-14 09:22:00,
2013-01-14 03:27:00,8.9,4.3,30.34,WSW,255,5.0,8.0,81,0.00,,---,0.00,VWS V14.01,2013-01-14 09:27:00,
2013-01-14 03:32:00,8.8,4.4,30.34,WSW,257,4.0,7.0,82,0.00,,---,0.00,VWS V14.01,2013-01-14 09:32:00,
2013-01-14 03:38:00,8.7,4.3,30.35,WSW,254,4.0,8.0,82,0.00,,---,0.00,VWS V14.01,2013-01-14 09:38:00,
2013-01-14 03:43:00,8.6,4.2,30.35,WSW,253,3.0,8.0,82,0.00,,---,0.00,VWS V14.01,2013-01-14 09:43:00,
2013-01-14 03:48:00,8.5,4.2,30.35,WSW,252,5.0,5.0,82,0.00,,---,0.00,VWS V14.01,2013-01-14 09:48:00,
2013-01-14 03:53:00,8.2,3.8,30.35,WSW,252,4.0,6.0,82,0.00,,---,0.00,VWS V14.01,2013-01-14 09:53:00,
2013-01-14 03:58:00,8.1,4.0,30.35,West,276,7.0,8.0,83,0.00,,---,0.00,VWS V14.01,2013-01-14 09:58:00,
2013-01-14 04:03:00,8.2,4.1,30.35,West,270,5.0,6.0,83,0.00,,---,0.00,VWS V14.01,2013-01-14 10:03:00,
2013-01-14 04:08:00,8.3,4.2,30.35,WSW,253,3.0,6.0,83,0.00,,---,0.00,VWS V14.01,2013-01-14 10:08:00,
2013-01-14 04:13:00,8.4,4.3,30.36,West,263,5.0,9.0,83,0.00,,---,0.00,VWS V14.01,2013-01-14 10:13:00,
2013-01-14 04:18:00,8.5,4.2,30.36,West,261,4.0,9.0,82,0.00,,---,0.00,VWS V14.01,2013-01-14 10:18:00,
2013-01-14 04:23:00,8.4,4.1,30.35,WSW,254,6.0,9.0,82,0.00,,---,0.00,VWS V14.01,2013-01-14 10:23:00,
2013-01-14 04:28:00,8.3,4.0,30.36,WSW,247,8.0,9.0,82,0.00,,---,0.00,VWS V14.01,2013-01-14 10:28:00,
2013-01-14 04:33:00,8.2,3.8,30.36,WSW,255,6.0,10.0,82,0.00,,---,0.00,VWS V14.01,2013-01-14 10:33:00,
2013-01-14 04:38:00,8.2,3.8,30.35,WSW,253,6.0,10.0,82,0.00,,---,0.00,VWS V14.01,2013-01-14 10:38:00,
2013-01-14 04:43:00,8.0,3.7,30.36,WSW,246,5.0,10.0,82,0.00,,---,0.00,VWS V14.01,2013-01-14 10:43:00,
2013-01-14 04:48:00,7.9,3.6,30.36,WSW,246,5.0,9.0,82,0.00,,---,0.00,VWS V14.01,2013-01-14 10:48:00,
2013-01-14 04:53:00,7.8,3.5,30.36,SW,236,4.0,9.0,82,0.00,,---,0.00,VWS V14.01,2013-01-14 10:53:00,
2013-01-14 04:58:00,7.8,3.7,30.37,WSW,237,5.0,9.0,83,0.00,,---,0.00,VWS V14.01,2013-01-14 10:58:00,
2013-01-14 05:03:00,7.7,3.6,30.37,WSW,240,6.0,8.0,83,0.00,,---,0.00,VWS V14.01,2013-01-14 11:03:00,
2013-01-14 05:08:00,7.6,3.3,30.37,WSW,248,5.0,8.0,82,0.00,,---,0.00,VWS V14.01,2013-01-14 11:08:00,
2013-01-14 05:13:00,7.7,3.6,30.38,WSW,248,4.0,8.0,83,0.00,,---,0.00,VWS V14.01,2013-01-14 11:13:00,
2013-01-14 05:18:00,7.6,3.5,30.38,WSW,247,5.0,6.0,83,0.00,,---,0.00,VWS V14.01,2013-01-14 11:18:00,
2013-01-14 05:23:00,7.5,3.2,30.39,WSW,246,5.0,7.0,82,0.00,,---,0.00,VWS V14.01,2013-01-14 11:23:00,
2013-01-14 05:28:00,7.4,3.3,30.39,WSW,246,3.0,7.0,83,0.00,,---,0.00,VWS V14.01,2013-01-14 11:28:00,
2013-01-14 05:33:00,7.1,3.0,30.39,WSW,246,4.0,5.0,83,0.00,,---,0.00,VWS V14.01,2013-01-14 11:33:00,
2013-01-14 05:39:00,6.9,2.8,30.40,WSW,246,5.0,6.0,83,0.00,,---,0.00,VWS V14.01,2013-01-14 11:39:00,
2013-01-14 05:44:00,6.9,3.1,30.40,SW,218,4.0,7.0,84,0.00,,---,0.00,VWS V14.01,2013-01-14 11:44:00,
2013-01-14 05:49:00,6.7,2.6,30.40,SW,218,3.0,4.0,83,0.00,,---,0.00,VWS V14.01,2013-01-14 11:49:00,
2013-01-14 05:54:00,6.5,2.7,30.41,SW,218,3.0,5.0,84,0.00,,---,0.00,VWS V14.01,2013-01-14 11:54:00,
2013-01-14 05:59:00,6.4,2.6,30.41,SW,218,4.0,5.0,84,0.00,,---,0.00,VWS V14.01,2013-01-14 11:59:00,
2013-01-14 06:04:00,6.4,2.6,30.42,SW,218,4.0,5.0,84,0.00,,---,0.00,VWS V14.01,2013-01-14 12:04:00,
2013-01-14 06:09:00,6.4,2.9,30.43,SW,218,4.0,6.0,85,0.00,,---,0.00,VWS V14.01,2013-01-14 12:09:00,
2013-01-14 06:14:00,6.6,3.1,30.43,SW,218,6.0,6.0,85,0.00,,---,0.00,VWS V14.01,2013-01-14 12:14:00,
2013-01-14 06:19:00,7.0,3.5,30.43,SW,217,5.0,7.0,85,0.00,,---,0.00,VWS V14.01,2013-01-14 12:19:00,
2013-01-14 06:24:00,7.1,3.5,30.43,SW,216,4.0,7.0,85,0.00,,---,0.00,VWS V14.01,2013-01-14 12:24:00,
2013-01-14 06:29:00,7.0,3.2,30.44,SSW,209,5.0,7.0,84,0.00,,---,0.00,VWS V14.01,2013-01-14 12:29:00,
2013-01-14 06:34:00,7.2,3.7,30.45,SSW,207,5.0,7.0,85,0.00,,---,0.00,VWS V14.01,2013-01-14 12:34:00,
2013-01-14 06:39:00,7.5,3.9,30.45,SSW,207,5.0,7.0,85,0.00,,---,0.00,VWS V14.01,2013-01-14 12:39:00,
2013-01-14 06:44:00,7.4,3.6,30.45,SSW,207,5.0,7.0,84,0.00,,---,0.00,VWS V14.01,2013-01-14 12:44:00,
2013-01-14 06:49:00,7.1,3.3,30.45,SSW,207,3.0,5.0,84,0.00,,---,0.00,VWS V14.01,2013-01-14 12:49:00,
2013-01-14 06:54:00,6.8,3.0,30.45,SSW,207,3.0,5.0,84,0.00,,---,0.00,VWS V14.01,2013-01-14 12:54:00,
2013-01-14 06:59:00,6.4,2.9,30.45,SSW,207,3.0,5.0,85,0.00,,---,0.00,VWS V14.01,2013-01-14 12:59:00,
2013-01-14 07:04:00,6.2,2.7,30.45,SSW,207,3.0,5.0,85,0.00,,---,0.00,VWS V14.01,2013-01-14 13:04:00,
2013-01-14 07:10:00,6.2,2.7,30.45,SSW,207,4.0,5.0,85,0.00,,---,0.00,VWS V14.01,2013-01-14 13:10:00,
2013-01-14 07:15:00,6.0,2.7,30.45,SSW,207,3.0,5.0,86,0.00,,---,0.00,VWS V14.01,2013-01-14 13:15:00,
2013-01-14 07:20:00,6.0,2.7,30.45,SSW,207,2.0,3.0,86,0.00,,---,0.00,VWS V14.01,2013-01-14 13:20:00,
2013-01-14 07:25:00,5.9,2.6,30.46,SSW,207,4.0,4.0,86,0.00,,---,0.00,VWS V14.01,2013-01-14 13:25:00,
2013-01-14 07:30:00,5.9,2.6,30.46,SSW,207,3.0,5.0,86,0.00,,---,0.00,VWS V14.01,2013-01-14 13:30:00,
2013-01-14 07:35:00,6.0,2.7,30.46,SSW,207,4.0,5.0,86,0.00,,---,0.00,VWS V14.01,2013-01-14 13:35:00,
2013-01-14 07:40:00,6.7,3.7,30.47,SSW,207,5.0,6.0,87,0.00,,---,0.00,VWS V14.01,2013-01-14 13:40:00,
2013-01-14 07:45:00,7.1,3.8,30.47,SSW,207,3.0,6.0,86,0.00,,---,0.00,VWS V14.01,2013-01-14 13:45:00,
2013-01-14 07:50:00,7.3,4.0,30.47,SSW,207,4.0,6.0,86,0.00,,---,0.00,VWS V14.01,2013-01-14 13:50:00,
2013-01-14 07:55:00,7.5,4.2,30.47,SSW,207,5.0,6.0,86,0.00,,---,0.00,VWS V14.01,2013-01-14 13:55:00,
2013-01-14 08:00:00,7.8,4.5,30.47,SSW,207,5.0,6.0,86,0.00,,---,0.00,VWS V14.01,2013-01-14 14:00:00,
2013-01-14 08:05:00,8.1,4.8,30.47,SSW,207,4.0,6.0,86,0.00,,---,0.00,VWS V14.01,2013-01-14 14:05:00,
2013-01-14 08:10:00,8.3,5.0,30.47,SSW,207,4.0,6.0,86,0.00,,---,0.00,VWS V14.01,2013-01-14 14:10:00,
2013-01-14 08:15:00,8.5,5.2,30.47,SSW,207,4.0,6.0,86,0.00,,---,0.00,VWS V14.01,2013-01-14 14:15:00,
2013-01-14 08:20:00,8.9,5.6,30.48,SW,234,5.0,8.0,86,0.00,,---,0.00,VWS V14.01,2013-01-14 14:20:00,
2013-01-14 08:25:00,9.3,5.7,30.48,SW,234,7.0,9.0,85,0.00,,---,0.00,VWS V14.01,2013-01-14 14:25:00,
2013-01-14 08:30:00,9.6,6.0,30.48,WSW,250,8.0,10.0,85,0.00,,---,0.00,VWS V14.01,2013-01-14 14:30:00,
2013-01-14 08:35:00,9.7,5.8,30.48,SW,227,6.0,11.0,84,0.00,,---,0.00,VWS V14.01,2013-01-14 14:35:00,
2013-01-14 08:40:00,10.0,6.1,30.48,SW,228,6.0,11.0,84,0.00,,---,0.00,VWS V14.01,2013-01-14 14:40:00,
2013-01-14 08:45:00,10.3,6.4,30.48,SW,235,9.0,11.0,84,0.00,,---,0.00,VWS V14.01,2013-01-14 14:45:00,
2013-01-14 08:50:00,10.5,6.4,30.48,SW,236,6.0,10.0,83,0.00,,---,0.00,VWS V14.01,2013-01-14 14:50:00,
2013-01-14 08:55:00,10.6,6.5,30.48,SW,215,9.0,10.0,83,0.00,,---,0.00,VWS V14.01,2013-01-14 14:55:00,
2013-01-14 09:00:00,10.7,6.3,30.48,SW,227,8.0,10.0,82,0.00,,---,0.00,VWS V14.01,2013-01-14 15:00:00,
2013-01-14 09:05:00,10.9,6.5,30.47,SW,226,7.0,10.0,82,0.00,,---,0.00,VWS V14.01,2013-01-14 15:05:00,
2013-01-14 09:10:00,11.0,6.3,30.48,WSW,249,7.0,11.0,81,0.00,,---,0.00,VWS V14.01,2013-01-14 15:10:00,
2013-01-14 09:15:00,11.1,6.4,30.47,SW,222,10.0,12.0,81,0.00,,---,0.00,VWS V14.01,2013-01-14 15:15:00,
2013-01-14 09:20:00,11.3,6.6,30.47,SW,218,6.0,10.0,81,0.00,,---,0.00,VWS V14.01,2013-01-14 15:20:00,
2013-01-14 09:25:00,11.7,7.0,30.47,WSW,240,8.0,10.0,81,0.00,,---,0.00,VWS V14.01,2013-01-14 15:25:00,
2013-01-14 09:30:00,11.7,6.7,30.48,WSW,238,6.0,7.0,80,0.00,,---,0.00,VWS V14.01,2013-01-14 15:30:00,
2013-01-14 09:35:00,11.8,7.1,30.48,WSW,242,6.0,10.0,81,0.00,,---,0.00,VWS V14.01,2013-01-14 15:35:00,
2013-01-14 09:40:00,12.1,7.1,30.47,SSW,209,7.0,10.0,80,0.00,,---,0.00,VWS V14.01,2013-01-14 15:40:00,
2013-01-14 09:45:00,12.4,7.7,30.48,SW,236,7.0,9.0,81,0.00,,---,0.00,VWS V14.01,2013-01-14 15:45:00,
2013-01-14 09:50:00,12.5,7.5,30.47,SW,229,7.0,9.0,80,0.00,,---,0.00,VWS V14.01,2013-01-14 15:50:00,
2013-01-14 09:55:00,12.7,7.7,30.48,SW,218,9.0,11.0,80,0.00,,---,0.00,VWS V14.01,2013-01-14 15:55:00,
2013-01-14 10:00:00,12.6,7.3,30.48,SW,221,8.0,8.0,79,0.00,,---,0.00,VWS V14.01,2013-01-14 16:00:00,
2013-01-14 10:05:00,13.0,7.7,30.47,SW,227,7.0,10.0,79,0.00,,---,0.00,VWS V14.01,2013-01-14 16:05:00,
2013-01-14 10:10:00,13.3,8.0,30.47,SSW,205,7.0,10.0,79,0.00,,---,0.00,VWS V14.01,2013-01-14 16:10:00,
2013-01-14 10:16:00,13.5,8.2,30.47,SW,226,7.0,7.0,79,0.00,,---,0.00,VWS V14.01,2013-01-14 16:16:00,
2013-01-14 10:21:00,13.5,8.2,30.47,SSW,207,7.0,11.0,79,0.00,,---,0.00,VWS V14.01,2013-01-14 16:21:00,
2013-01-14 10:26:00,13.8,8.2,30.47,SW,214,8.0,11.0,78,0.00,,---,0.00,VWS V14.01,2013-01-14 16:26:00,
2013-01-14 10:31:00,14.0,8.1,30.47,SSW,212,9.0,10.0,77,0.00,,---,0.00,VWS V14.01,2013-01-14 16:31:00,
2013-01-14 10:36:00,14.1,8.5,30.47,SSW,203,8.0,10.0,78,0.00,,---,0.00,VWS V14.01,2013-01-14 16:36:00,
2013-01-14 10:41:00,14.3,8.4,30.46,WSW,241,7.0,10.0,77,0.00,,---,0.00,VWS V14.01,2013-01-14 16:41:00,
2013-01-14 10:46:00,14.5,8.6,30.46,SW,222,7.0,7.0,77,0.00,,---,0.00,VWS V14.01,2013-01-14 16:46:00,
2013-01-14 10:51:00,14.8,8.9,30.46,WSW,248,6.0,10.0,77,0.00,,---,0.00,VWS V14.01,2013-01-14 16:51:00,
2013-01-14 10:56:00,15.0,9.1,30.45,SW,222,6.0,10.0,77,0.00,,---,0.00,VWS V14.01,2013-01-14 16:56:00,
2013-01-14 11:01:00,15.3,9.4,30.45,SW,227,7.0,7.0,77,0.00,,---,0.00,VWS V14.01,2013-01-14 17:01:00,
2013-01-14 11:06:00,15.7,9.5,30.45,SW,225,8.0,10.0,76,0.00,,---,0.00,VWS V14.01,2013-01-14 17:06:00,
2013-01-14 11:11:00,15.6,9.4,30.45,SW,217,6.0,10.0,76,0.00,,---,0.00,VWS V14.01,2013-01-14 17:11:00,
2013-01-14 11:16:00,16.1,10.2,30.45,SW,217,5.0,6.0,77,0.00,,---,0.00,VWS V14.01,2013-01-14 17:16:00,
2013-01-14 11:21:00,16.4,10.2,30.45,SW,216,7.0,9.0,76,0.00,,---,0.00,VWS V14.01,2013-01-14 17:21:00,
2013-01-14 11:26:00,16.4,9.9,30.44,WSW,240,7.0,10.0,75,0.00,,---,0.00,VWS V14.01,2013-01-14 17:26:00,
2013-01-14 11:31:00,16.9,10.4,30.44,SW,236,8.0,8.0,75,0.00,,---,0.00,VWS V14.01,2013-01-14 17:31:00,
2013-01-14 11:36:00,17.3,10.8,30.44,WSW,248,6.0,9.0,75,0.00,,---,0.00,VWS V14.01,2013-01-14 17:36:00,
2013-01-14 11:41:00,17.6,10.7,30.44,WSW,258,8.0,10.0,74,0.00,,---,0.00,VWS V14.01,2013-01-14 17:41:00,
2013-01-14 11:46:00,17.6,10.4,30.45,WSW,252,6.0,8.0,73,0.00,,---,0.00,VWS V14.01,2013-01-14 17:46:00,
2013-01-14 11:51:00,17.6,10.4,30.44,WSW,246,9.0,10.0,73,0.00,,---,0.00,VWS V14.01,2013-01-14 17:51:00,
2013-01-14 11:56:00,18.1,10.9,30.44,West,279,7.0,14.0,73,0.00,,---,0.00,VWS V14.01,2013-01-14 17:56:00,
2013-01-14 12:01:00,18.0,10.8,30.44,WSW,246,7.0,8.0,73,0.00,,---,0.00,VWS V14.01,2013-01-14 18:01:00,
2013-01-14 12:06:00,18.0,10.5,30.44,WSW,255,8.0,12.0,72,0.00,,---,0.00,VWS V14.01,2013-01-14 18:06:00,
2013-01-14 12:11:00,18.1,11.2,30.44,SW,232,7.0,12.0,74,0.00,,---,0.00,VWS V14.01,2013-01-14 18:11:00,
2013-01-14 12:16:00,18.4,11.2,30.44,SW,233,7.0,10.0,73,0.00,,---,0.00,VWS V14.01,2013-01-14 18:16:00,
2013-01-14 12:21:00,18.6,11.7,30.44,WSW,256,8.0,11.0,74,0.00,,---,0.00,VWS V14.01,2013-01-14 18:21:00,
2013-01-14 12:26:00,19.0,12.1,30.44,West,260,5.0,11.0,74,0.00,,---,0.00,VWS V14.01,2013-01-14 18:26:00,
2013-01-14 12:31:00,19.1,11.9,30.44,WSW,248,5.0,9.0,73,0.00,,---,0.00,VWS V14.01,2013-01-14 18:31:00,
2013-01-14 12:36:00,19.4,12.5,30.43,WSW,253,7.0,11.0,74,0.00,,---,0.00,VWS V14.01,2013-01-14 18:36:00,
2013-01-14 12:42:00,19.3,11.8,30.43,SW,225,8.0,11.0,72,0.00,,---,0.00,VWS V14.01,2013-01-14 18:42:00,
2013-01-14 12:47:00,19.7,12.1,30.43,WSW,256,7.0,10.0,72,0.00,,---,0.00,VWS V14.01,2013-01-14 18:47:00,
2013-01-14 12:52:00,19.6,12.1,30.43,WSW,256,6.0,10.0,72,0.00,,---,0.00,VWS V14.01,2013-01-14 18:52:00,
2013-01-14 12:57:00,19.8,12.2,30.43,SW,231,9.0,10.0,72,0.00,,---,0.00,VWS V14.01,2013-01-14 18:57:00,
2013-01-14 13:02:00,19.8,12.2,30.43,WSW,254,8.0,10.0,72,0.00,,---,0.00,VWS V14.01,2013-01-14 19:02:00,
2013-01-14 13:07:00,20.0,12.4,30.43,SW,234,7.0,12.0,72,0.00,,---,0.00,VWS V14.01,2013-01-14 19:07:00,
2013-01-14 13:12:00,20.0,12.1,30.43,WSW,246,9.0,12.0,71,0.00,,---,0.00,VWS V14.01,2013-01-14 19:12:00,
2013-01-14 13:17:00,20.2,12.3,30.43,WSW,243,6.0,11.0,71,0.00,,---,0.00,VWS V14.01,2013-01-14 19:17:00,
2013-01-14 13:22:00,20.4,12.5,30.43,WSW,240,9.0,14.0,71,0.00,,---,0.00,VWS V14.01,2013-01-14 19:22:00,
2013-01-14 13:27:00,20.8,13.2,30.42,WSW,248,7.0,14.0,72,0.00,,---,0.00,VWS V14.01,2013-01-14 19:27:00,
2013-01-14 13:32:00,21.1,12.9,30.42,WSW,245,7.0,9.0,70,0.00,,---,0.00,VWS V14.01,2013-01-14 19:32:00,
2013-01-14 13:37:00,21.5,13.2,30.43,WSW,241,11.0,13.0,70,0.00,,---,0.00,VWS V14.01,2013-01-14 19:37:00,
2013-01-14 13:42:00,21.5,13.2,30.43,SW,232,10.0,13.0,70,0.00,,---,0.00,VWS V14.01,2013-01-14 19:42:00,
2013-01-14 13:47:00,21.6,13.7,30.43,WSW,238,8.0,12.0,71,0.00,,---,0.00,VWS V14.01,2013-01-14 19:47:00,
2013-01-14 13:52:00,21.7,12.8,30.43,SW,215,9.0,12.0,68,0.00,,---,0.00,VWS V14.01,2013-01-14 19:52:00,
2013-01-14 13:57:00,21.7,12.4,30.43,WSW,257,8.0,14.0,67,0.00,,---,0.00,VWS V14.01,2013-01-14 19:57:00,
2013-01-14 14:02:00,21.8,12.9,30.43,WSW,252,9.0,12.0,68,0.00,,---,0.00,VWS V14.01,2013-01-14 20:02:00,
2013-01-14 14:07:00,21.7,12.4,30.43,SW,236,8.0,12.0,67,0.00,,---,0.00,VWS V14.01,2013-01-14 20:07:00,
2013-01-14 14:12:00,22.0,12.7,30.43,WSW,255,8.0,12.0,67,0.00,,---,0.00,VWS V14.01,2013-01-14 20:12:00,
2013-01-14 14:17:00,22.0,12.1,30.43,WSW,246,9.0,12.0,65,0.00,,---,0.00,VWS V14.01,2013-01-14 20:17:00,
2013-01-14 14:22:00,22.0,12.4,30.43,WSW,239,9.0,13.0,66,0.00,,---,0.00,VWS V14.01,2013-01-14 20:22:00,
2013-01-14 14:27:00,22.1,12.8,30.43,WSW,254,6.0,13.0,67,0.00,,---,0.00,VWS V14.01,2013-01-14 20:27:00,
2013-01-14 14:32:00,22.2,12.6,30.43,WSW,258,7.0,10.0,66,0.00,,---,0.00,VWS V14.01,2013-01-14 20:32:00,
2013-01-14 14:37:00,22.1,12.8,30.43,WSW,250,6.0,10.0,67,0.00,,---,0.00,VWS V14.01,2013-01-14 20:37:00,
2013-01-14 14:42:00,22.2,12.9,30.43,WSW,243,6.0,10.0,67,0.00,,---,0.00,VWS V14.01,2013-01-14 20:42:00,
2013-01-14 14:47:00,22.4,13.1,30.44,WSW,253,6.0,8.0,67,0.00,,---,0.00,VWS V14.01,2013-01-14 20:47:00,
2013-01-14 14:52:00,22.6,13.0,30.44,SW,233,9.0,10.0,66,0.00,,---,0.00,VWS V14.01,2013-01-14 20:52:00,
2013-01-14 14:57:00,22.9,13.3,30.44,WSW,246,8.0,10.0,66,0.00,,---,0.00,VWS V14.01,2013-01-14 20:57:00,
2013-01-14 15:02:00,22.6,13.0,30.45,SW,229,10.0,10.0,66,0.00,,---,0.00,VWS V14.01,2013-01-14 21:02:00,
2013-01-14 15:07:00,22.7,13.1,30.45,SW,236,6.0,12.0,66,0.00,,---,0.00,VWS V14.01,2013-01-14 21:07:00,
2013-01-14 15:12:00,22.9,13.6,30.44,SW,234,10.0,13.0,67,0.00,,---,0.00,VWS V14.01,2013-01-14 21:12:00,
2013-01-14 15:17:00,22.8,13.5,30.44,WSW,249,8.0,11.0,67,0.00,,---,0.00,VWS V14.01,2013-01-14 21:17:00,
2013-01-14 15:22:00,23.0,14.0,30.44,WSW,239,6.0,11.0,68,0.00,,---,0.00,VWS V14.01,2013-01-14 21:22:00,
2013-01-14 15:27:00,22.8,13.5,30.44,SW,227,8.0,15.0,67,0.00,,---,0.00,VWS V14.01,2013-01-14 21:27:00,
2013-01-14 15:32:00,22.9,13.9,30.44,WSW,249,5.0,8.0,68,0.00,,---,0.00,VWS V14.01,2013-01-14 21:32:00,
2013-01-14 15:37:00,22.8,13.5,30.44,WSW,240,8.0,11.0,67,0.00,,---,0.00,VWS V14.01,2013-01-14 21:37:00,
2013-01-14 15:42:00,22.7,13.4,30.44,SW,226,7.0,11.0,67,0.00,,---,0.00,VWS V14.01,2013-01-14 21:42:00,
2013-01-14 15:47:00,22.5,13.2,30.44,SW,222,9.0,13.0,67,0.00,,---,0.00,VWS V14.01,2013-01-14 21:47:00,
2013-01-14 15:52:00,22.4,13.1,30.44,SW,230,10.0,14.0,67,0.00,,---,0.00,VWS V14.01,2013-01-14 21:52:00,
2013-01-14 15:57:00,22.3,13.4,30.44,WSW,237,8.0,14.0,68,0.00,,---,0.00,VWS V14.01,2013-01-14 21:57:00,
2013-01-14 16:02:00,22.2,12.9,30.44,WSW,242,8.0,10.0,67,0.00,,---,0.00,VWS V14.01,2013-01-14 22:02:00,
2013-01-14 16:07:00,22.0,13.1,30.44,SW,236,6.0,11.0,68,0.00,,---,0.00,VWS V14.01,2013-01-14 22:07:00,
2013-01-14 16:13:00,21.9,13.0,30.43,WSW,240,8.0,11.0,68,0.00,,---,0.00,VWS V14.01,2013-01-14 22:13:00,
2013-01-14 16:18:00,21.7,12.8,30.44,WSW,243,6.0,8.0,68,0.00,,---,0.00,VWS V14.01,2013-01-14 22:18:00,
2013-01-14 16:23:00,21.6,12.7,30.44,SW,236,6.0,8.0,68,0.00,,---,0.00,VWS V14.01,2013-01-14 22:23:00,
2013-01-14 16:28:00,21.3,12.7,30.44,WSW,239,5.0,9.0,69,0.00,,---,0.00,VWS V14.01,2013-01-14 22:28:00,
2013-01-14 16:33:00,20.7,12.5,30.44,WSW,238,4.0,7.0,70,0.00,,---,0.00,VWS V14.01,2013-01-14 22:33:00,
2013-01-14 16:38:00,20.3,12.4,30.44,WSW,237,4.0,7.0,71,0.00,,---,0.00,VWS V14.01,2013-01-14 22:38:00,
2013-01-14 16:43:00,20.0,12.1,30.44,WSW,237,3.0,7.0,71,0.00,,---,0.00,VWS V14.01,2013-01-14 22:43:00,
2013-01-14 16:48:00,19.4,11.6,30.44,WSW,237,3.0,4.0,71,0.00,,---,0.00,VWS V14.01,2013-01-14 22:48:00,
2013-01-14 16:53:00,18.8,11.6,30.44,WSW,237,3.0,4.0,73,0.00,,---,0.00,VWS V14.01,2013-01-14 22:53:00,
2013-01-14 16:58:00,18.2,11.3,30.44,WSW,237,2.0,4.0,74,0.00,,---,0.00,VWS V14.01,2013-01-14 22:58:00,
2013-01-14 17:03:00,17.6,11.0,30.44,WSW,237,2.0,3.0,75,0.00,,---,0.00,VWS V14.01,2013-01-14 23:03:00,
2013-01-14 17:08:00,17.7,11.4,30.44,WSW,237,2.0,5.0,76,0.00,,---,0.00,VWS V14.01,2013-01-14 23:08:00,
2013-01-14 17:13:00,17.6,11.3,30.44,WSW,237,3.0,5.0,76,0.00,,---,0.00,VWS V14.01,2013-01-14 23:13:00,
2013-01-14 17:18:00,17.7,11.7,30.44,WSW,237,3.0,5.0,77,0.00,,---,0.00,VWS V14.01,2013-01-14 23:18:00,
2013-01-14 17:23:00,17.7,11.7,30.44,WSW,237,4.0,5.0,77,0.00,,---,0.00,VWS V14.01,2013-01-14 23:23:00,
2013-01-14 17:28:00,17.7,11.7,30.44,WSW,237,5.0,6.0,77,0.00,,---,0.00,VWS V14.01,2013-01-14 23:28:00,
2013-01-14 17:33:00,18.0,12.0,30.44,WSW,237,4.0,6.0,77,0.00,,---,0.00,VWS V14.01,2013-01-14 23:33:00,
2013-01-14 17:38:00,17.7,11.4,30.44,WSW,237,3.0,6.0,76,0.00,,---,0.00,VWS V14.01,2013-01-14 23:38:00,
2013-01-14 17:43:00,17.6,11.6,30.43,WSW,237,4.0,6.0,77,0.00,,---,0.00,VWS V14.01,2013-01-14 23:43:00,
2013-01-14 17:48:00,17.7,11.7,30.43,WSW,237,4.0,5.0,77,0.00,,---,0.00,VWS V14.01,2013-01-14 23:48:00,
2013-01-14 17:53:00,17.5,11.8,30.43,WSW,237,3.0,5.0,78,0.00,,---,0.00,VWS V14.01,2013-01-14 23:53:00,
2013-01-14 17:58:00,17.4,11.7,30.43,WSW,237,3.0,5.0,78,0.00,,---,0.00,VWS V14.01,2013-01-14 23:58:00,
2013-01-14 18:03:00,16.9,11.2,30.43,WSW,237,2.0,3.0,78,0.00,,---,0.00,VWS V14.01,2013-01-15 00:03:00,
2013-01-14 18:08:00,16.0,10.6,30.44,WSW,237,2.0,3.0,79,0.00,,---,0.00,VWS V14.01,2013-01-15 00:08:00,
2013-01-14 18:13:00,15.3,10.0,30.44,WSW,237,1.0,3.0,79,0.00,,---,0.00,VWS V14.01,2013-01-15 00:13:00,
2013-01-14 18:18:00,15.1,10.3,30.44,WSW,237,3.0,4.0,81,0.00,,---,0.00,VWS V14.01,2013-01-15 00:18:00,
2013-01-14 18:23:00,15.4,10.6,30.44,WSW,237,3.0,4.0,81,0.00,,---,0.00,VWS V14.01,2013-01-15 00:23:00,
2013-01-14 18:28:00,15.7,11.2,30.44,WSW,237,3.0,4.0,82,0.00,,---,0.00,VWS V14.01,2013-01-15 00:28:00,
2013-01-14 18:33:00,15.6,11.1,30.44,WSW,237,3.0,3.0,82,0.00,,---,0.00,VWS V14.01,2013-01-15 00:33:00,
2013-01-14 18:39:00,15.4,10.6,30.45,WSW,237,3.0,4.0,81,0.00,,---,0.00,VWS V14.01,2013-01-15 00:39:00,
2013-01-14 18:44:00,14.4,9.9,30.45,WSW,237,4.0,4.0,82,0.00,,---,0.00,VWS V14.01,2013-01-15 00:44:00,
2013-01-14 18:49:00,14.1,9.9,30.45,WSW,237,3.0,3.0,83,0.00,,---,0.00,VWS V14.01,2013-01-15 00:49:00,
2013-01-14 18:54:00,13.9,9.7,30.45,WSW,237,3.0,4.0,83,0.00,,---,0.00,VWS V14.01,2013-01-15 00:54:00,
2013-01-14 18:59:00,13.8,9.6,30.45,WSW,237,2.0,4.0,83,0.00,,---,0.00,VWS V14.01,2013-01-15 00:59:00,
2013-01-14 19:04:00,13.7,9.5,30.45,WSW,237,3.0,4.0,83,0.00,,---,0.00,VWS V14.01,2013-01-15 01:04:00,
2013-01-14 19:09:00,14.2,10.3,30.45,WSW,237,2.0,4.0,84,0.00,,---,0.00,VWS V14.01,2013-01-15 01:09:00,
2013-01-14 19:14:00,14.8,10.9,30.45,WSW,237,5.0,5.0,84,0.00,,---,0.00,VWS V14.01,2013-01-15 01:14:00,
2013-01-14 19:19:00,15.4,11.2,30.45,WSW,237,3.0,4.0,83,0.00,,---,0.00,VWS V14.01,2013-01-15 01:19:00,
2013-01-14 19:24:00,15.3,11.1,30.46,WSW,237,4.0,5.0,83,0.00,,---,0.00,VWS V14.01,2013-01-15 01:24:00,
2013-01-14 19:29:00,14.9,10.7,30.45,WSW,237,0.0,5.0,83,0.00,,---,0.00,VWS V14.01,2013-01-15 01:29:00,
2013-01-14 19:34:00,14.8,10.9,30.45,WSW,237,0.0,1.0,84,0.00,,---,0.00,VWS V14.01,2013-01-15 01:34:00,
2013-01-14 19:39:00,14.7,10.8,30.45,WSW,237,1.0,1.0,84,0.00,,---,0.00,VWS V14.01,2013-01-15 01:39:00,
2013-01-14 19:44:00,14.4,12.5,30.45,WSW,237,2.0,3.0,92,0.00,,---,0.00,VWS V14.01,2013-01-15 01:44:00,
2013-01-14 19:49:00,14.4,10.5,30.45,WSW,237,3.0,3.0,84,0.00,,---,0.00,VWS V14.01,2013-01-15 01:49:00,
2013-01-14 19:54:00,14.7,11.0,30.45,WSW,237,2.0,5.0,85,0.00,,---,0.00,VWS V14.01,2013-01-15 01:54:00,
2013-01-14 19:59:00,14.6,10.7,30.45,WSW,237,2.0,5.0,84,0.00,,---,0.00,VWS V14.01,2013-01-15 01:59:00,
2013-01-14 20:04:00,14.1,10.2,30.45,WSW,237,2.0,4.0,84,0.00,,---,0.00,VWS V14.01,2013-01-15 02:04:00,
2013-01-14 20:09:00,14.1,10.2,30.45,WSW,237,1.0,4.0,84,0.00,,---,0.00,VWS V14.01,2013-01-15 02:09:00,
2013-01-14 20:14:00,13.9,10.0,30.45,WSW,237,2.0,4.0,84,0.00,,---,0.00,VWS V14.01,2013-01-15 02:14:00,
2013-01-14 20:19:00,14.1,10.4,30.45,WSW,237,1.0,3.0,85,0.00,,---,0.00,VWS V14.01,2013-01-15 02:19:00,
2013-01-14 20:24:00,14.1,10.4,30.45,WSW,237,1.0,3.0,85,0.00,,---,0.00,VWS V14.01,2013-01-15 02:24:00,
2013-01-14 20:29:00,14.2,10.5,30.44,WSW,237,1.0,3.0,85,0.00,,---,0.00,VWS V14.01,2013-01-15 02:29:00,
2013-01-14 20:34:00,14.1,10.4,30.45,WSW,237,1.0,1.0,85,0.00,,---,0.00,VWS V14.01,2013-01-15 02:34:00,
2013-01-14 20:39:00,13.9,10.2,30.45,WSW,237,0.0,2.0,85,0.00,,---,0.00,VWS V14.01,2013-01-15 02:39:00,
2013-01-14 20:44:00,13.6,9.9,30.45,WSW,237,2.0,2.0,85,0.00,,---,0.00,VWS V14.01,2013-01-15 02:44:00,
2013-01-14 20:49:00,13.4,9.7,30.45,WSW,237,1.0,1.0,85,0.00,,---,0.00,VWS V14.01,2013-01-15 02:49:00,
2013-01-14 20:54:00,13.0,9.4,30.45,WSW,237,3.0,3.0,85,0.00,,---,0.00,VWS V14.01,2013-01-15 02:54:00,
2013-01-14 20:59:00,13.0,9.6,30.45,WSW,237,4.0,4.0,86,0.00,,---,0.00,VWS V14.01,2013-01-15 02:59:00,
2013-01-14 21:04:00,13.1,9.7,30.45,WSW,237,1.0,3.0,86,0.00,,---,0.00,VWS V14.01,2013-01-15 03:04:00,
2013-01-14 21:09:00,13.0,9.6,30.45,WSW,237,3.0,3.0,86,0.00,,---,0.00,VWS V14.01,2013-01-15 03:09:00,
2013-01-14 21:14:00,12.8,9.4,30.45,WSW,237,1.0,3.0,86,0.00,,---,0.00,VWS V14.01,2013-01-15 03:14:00,
2013-01-14 21:19:00,12.7,9.3,30.44,WSW,237,4.0,4.0,86,0.00,,---,0.00,VWS V14.01,2013-01-15 03:19:00,
2013-01-14 21:24:00,12.9,9.5,30.44,WSW,237,3.0,4.0,86,0.00,,---,0.00,VWS V14.01,2013-01-15 03:24:00,
2013-01-14 21:29:00,13.0,9.6,30.44,WSW,237,3.0,4.0,86,0.00,,---,0.00,VWS V14.01,2013-01-15 03:29:00,
2013-01-14 21:34:00,13.1,9.7,30.44,WSW,237,5.0,5.0,86,0.00,,---,0.00,VWS V14.01,2013-01-15 03:34:00,
2013-01-14 21:39:00,13.2,9.6,30.44,WSW,237,3.0,5.0,85,0.00,,---,0.00,VWS V14.01,2013-01-15 03:39:00,
2013-01-14 21:44:00,13.2,9.6,30.44,WSW,237,4.0,5.0,85,0.00,,---,0.00,VWS V14.01,2013-01-15 03:44:00,
2013-01-14 21:49:00,13.2,9.6,30.44,WSW,237,4.0,5.0,85,0.00,,---,0.00,VWS V14.01,2013-01-15 03:49:00,
2013-01-14 21:54:00,13.4,9.7,30.44,WSW,237,4.0,5.0,85,0.00,,---,0.00,VWS V14.01,2013-01-15 03:54:00,
2013-01-14 21:59:00,13.4,9.7,30.44,WSW,237,4.0,5.0,85,0.00,,---,0.00,VWS V14.01,2013-01-15 03:59:00,
2013-01-14 22:04:00,13.3,9.6,30.44,WSW,237,3.0,4.0,85,0.00,,---,0.00,VWS V14.01,2013-01-15 04:04:00,
2013-01-14 22:09:00,13.3,9.6,30.44,WSW,237,4.0,4.0,85,0.00,,---,0.00,VWS V14.01,2013-01-15 04:09:00,
2013-01-14 22:14:00,13.1,9.2,30.44,WSW,237,3.0,4.0,84,0.00,,---,0.00,VWS V14.01,2013-01-15 04:14:00,
2013-01-14 22:19:00,12.9,9.0,30.44,WSW,237,4.0,5.0,84,0.00,,---,0.00,VWS V14.01,2013-01-15 04:19:00,
2013-01-14 22:24:00,12.8,9.1,30.44,WSW,237,3.0,5.0,85,0.00,,---,0.00,VWS V14.01,2013-01-15 04:24:00,
2013-01-14 22:29:00,12.6,9.0,30.44,WSW,237,4.0,5.0,85,0.00,,---,0.00,VWS V14.01,2013-01-15 04:29:00,
2013-01-14 22:34:00,12.7,9.1,30.44,SW,236,4.0,5.0,85,0.00,,---,0.00,VWS V14.01,2013-01-15 04:34:00,
2013-01-14 22:39:00,12.8,9.1,30.44,SW,236,4.0,5.0,85,0.00,,---,0.00,VWS V14.01,2013-01-15 04:39:00,
2013-01-14 22:44:00,12.9,9.5,30.44,SW,236,4.0,5.0,86,0.00,,---,0.00,VWS V14.01,2013-01-15 04:44:00,
2013-01-14 22:49:00,12.8,9.1,30.44,SW,236,3.0,5.0,85,0.00,,---,0.00,VWS V14.01,2013-01-15 04:49:00,
2013-01-14 22:54:00,12.7,9.1,30.44,SW,236,3.0,5.0,85,0.00,,---,0.00,VWS V14.01,2013-01-15 04:54:00,
2013-01-14 22:59:00,12.5,8.9,30.44,SW,236,4.0,5.0,85,0.00,,---,0.00,VWS V14.01,2013-01-15 04:59:00,
2013-01-14 23:00:00,12.5,8.9,30.44,SW,236,4.0,5.0,85,0.00,,---,0.00,VWS V14.01,2013-01-15 05:00:00,
2013-01-14 23:06:00,12.3,8.7,30.44,SW,236,3.0,5.0,85,0.00,,---,0.00,VWS V14.01,2013-01-15 05:06:00,
2013-01-14 23:11:00,12.4,9.0,30.44,SW,236,5.0,5.0,86,0.00,,---,0.00,VWS V14.01,2013-01-15 05:11:00,
2013-01-14 23:16:00,12.5,9.1,30.44,SW,235,4.0,5.0,86,0.00,,---,0.00,VWS V14.01,2013-01-15 05:16:00,
2013-01-14 23:21:00,12.5,9.1,30.44,SSW,211,5.0,6.0,86,0.00,,---,0.00,VWS V14.01,2013-01-15 05:21:00,
2013-01-14 23:26:00,12.8,9.4,30.44,SSW,198,5.0,7.0,86,0.00,,---,0.00,VWS V14.01,2013-01-15 05:26:00,
2013-01-14 23:31:00,13.0,9.6,30.44,SSW,198,5.0,6.0,86,0.00,,---,0.00,VWS V14.01,2013-01-15 05:31:00,
2013-01-14 23:36:00,13.2,9.8,30.45,SSW,192,5.0,7.0,86,0.00,,---,0.00,VWS V14.01,2013-01-15 05:36:00,
2013-01-14 23:41:00,13.3,9.6,30.45,SSW,192,5.0,7.0,85,0.00,,---,0.00,VWS V14.01,2013-01-15 05:41:00,
2013-01-14 23:46:00,13.3,9.6,30.45,SSW,192,5.0,5.0,85,0.00,,---,0.00,VWS V14.01,2013-01-15 05:46:00,
2013-01-14 23:51:00,13.1,9.4,30.45,SSW,192,5.0,6.0,85,0.00,,---,0.00,VWS V14.01,2013-01-15 05:51:00,
2013-01-14 23:56:00,12.8,9.1,30.45,SSW,192,4.0,6.0,85,0.00,,---,0.00,VWS V14.01,2013-01-15 05:56:00,